TOURFACTS.DK  
Stats and Facts from Tour de France.

Tour de France 2019 starts in 347 days
  Riders   Stages   Teams   Summits   Yearly  


 
Search by year

After 2018 - Stage 14:
 15000 starters.
  5163 different riders.
  639 teams.
  2246 stages.
  456 restdays.
  441957.60 km.
  5678 abandonnees.


Top 3
GC
Christopher Froome86:20:55
Rigoberto Urán86:21:49
Romain Bardet86:23:15
Climb
Warren Barguil169 pt.
Primoz Roglic80 pt.
Thomas De Gendt64 pt.
Sprint
Michael Matthews359 pt.
André Greipel234 pt.
Edvald Boasson Hagen220 pt.
Youth
Simon Yates86:27:09
Louis Meintjes86:29:15
Emanuel Buchmann86:54:16
Facts from Tour de France 2002
  |   Stages.  |   Stage winners.  |   Days in yellow  |   Average speed.  |   Route.  |   Teams.  |   All riders.  |   Rookies.  |  

  |   Withdrawls.  |   GC.  |   Polka  |   Green  |   White  |   Summits. (In tour)  |   Miscellaneous.  |  

Stage 17 on July 25th. 2002
         Owning:    Lance Armstrong    
Pick a stage:  Pro 1 2 3 4 5 6 7 8 9 10 11 12 13 14 15 16 17 18 19 20
From: Aime    To: ClusesDist:142.00 km.
Cat: 1Cormet de RoselendBELMario Aerts
30 points
 
Cat: 1Col des SaisiesBELMario Aerts
30 points
 
Cat: 2Col de l'Aravis - ThônesBELMario Aerts
20 points
 
Cat: 1Col de la Colombiere BELMario Aerts
30 points
 

Average speed for all riders in stage:  33,163 km./hr.
    Place:Name:Team:Time:Km/h:
ITADario FrigoITATacconi Sport04:02:27  +  00:00:00=35,141 
BELMario AertsBELLotto-Adecco04:02:27  +  00:00:00=35,141 
ITAGiuseppe GueriniUSATeam Telekom04:02:29  +  00:00:02=35,136 
4 FRADavid MoncoutiéFRACofidis Credit Par Telephone04:05:22  +  00:02:55=34,724 
5 NORThor HushovdFRACredit Agricole04:05:25  +  00:02:58=34,716 
6 FRALaurent LefèvreFRAJean Delatour04:05:25  +  00:02:58=34,716 
7 ESPUnai OsaESPibanesto.com04:05:25  +  00:02:58=34,716 
8 ESPMarcos SerranoESPO.N.C.E.-Eroski04:05:25  +  00:02:58=34,716 
9 GERJörg JakscheESPO.N.C.E.-Eroski04:05:25  +  00:02:58=34,716 
10 ESPCarlos SastreDNKTeam CSC-Tiscali04:05:25  +  00:02:58=34,716 
11 COLSantiago BoteroESPKelme-Costa Blanca04:05:25  +  00:02:58=34,716 
12 ESPJosé Enrique GutierrezESPKelme-Costa Blanca04:05:41  +  00:03:14=34,679 
13 FRALaurent BrochardFRAJean Delatour04:07:03  +  00:04:36=34,487 
14 ESPFrancisco ManceboESPibanesto.com04:07:03  +  00:04:36=34,487 
15 USALevi LeipheimerNLDRabobank04:07:03  +  00:04:36=34,487 
16 USATyler HamiltonDNKTeam CSC-Tiscali04:07:03  +  00:04:36=34,487 
17 ESPJoseba BelokiESPO.N.C.E.-Eroski04:07:03  +  00:04:36=34,487 
18 KAZAndrei KivilevFRACofidis Credit Par Telephone04:07:03  +  00:04:36=34,487 
19 ESPJosé RubieraUSAUS Postal Service04:07:03  +  00:04:36=34,487 
20 FRAStéphane GoubertFRAJean Delatour04:07:03  +  00:04:36=34,487 
21 NEDMichael BoogerdNLDRabobank04:07:03  +  00:04:36=34,487 
22 ESPIgor GonzalezESPO.N.C.E.-Eroski04:07:03  +  00:04:36=34,487 
23 URSRaimondas RumsasITALampre-Daikin04:07:03  +  00:04:36=34,487 
24 USALance ArmstrongUSAUS Postal Service04:07:03  +  00:04:36=34,487 
25 PORJosé AzevedoESPO.N.C.E.-Eroski04:07:03  +  00:04:36=34,487 
26 ESPRoberto HerasUSAUS Postal Service04:07:03  +  00:04:36=34,487 
27 ITAIvan BassoITAFassa Bortolo04:07:03  +  00:04:36=34,487 
28 ESPIsidro NozalESPO.N.C.E.-Eroski04:07:22  +  00:04:55=34,443 
29 FRASylvain ChavanelFRABonjour04:07:22  +  00:04:55=34,443 
30 ITAMassimiliano LelliFRACofidis Credit Par Telephone04:07:48  +  00:05:21=34,383 
31 ITAIvan GottiITAAlessio04:07:48  +  00:05:21=34,383 
32 FRANicolas VogondyFRAfdjeux.com04:07:48  +  00:05:21=34,383 
33 POLDariusz BaranowskiESPibanesto.com04:07:48  +  00:05:21=34,383 
34 BELChristophe BrandtBELLotto-Adecco04:08:08  +  00:05:41=34,336 
35 DENNicki SørensenDNKTeam CSC-Tiscali04:08:08  +  00:05:41=34,336 
36 MARRichard VirenqueBELDomo-Farm Frites04:08:08  +  00:05:41=34,336 
37 FRACédric VasseurFRACofidis Credit Par Telephone04:08:08  +  00:05:41=34,336 
38 FRALudovic TurpinFRAAg2r Prevoyance04:08:08  +  00:05:41=34,336 
39 ESPIñigo CuestaFRACofidis Credit Par Telephone04:10:17  +  00:07:50=34,041 
40 UKRSerhiy HoncharITAFassa Bortolo04:10:17  +  00:07:50=34,041 
41 ITAAndrea PeronDNKTeam CSC-Tiscali04:10:17  +  00:07:50=34,041 
42 ITAMarzio BruseghinESPibanesto.com04:10:17  +  00:07:50=34,041 
43 ESPIban MayoESPEuskaltel - Euskadi04:11:15  +  00:08:48=33,910 
44 FRASandy CasarFRAfdjeux.com04:11:15  +  00:08:48=33,910 
45 ESPDavid EtxebarriaESPEuskaltel - Euskadi04:11:15  +  00:08:48=33,910 
46 HUNLaszlo BodrogiITAMapei-Quick Step04:11:35  +  00:09:08=33,866 
47 AUTGerhard TrampuschITAMapei-Quick Step04:11:35  +  00:09:08=33,866 
48 ESPMiguel Angel MartinezITAMapei-Quick Step04:11:35  +  00:09:08=33,866 
49 UKRVolodymir GustovITAFassa Bortolo04:11:35  +  00:09:08=33,866 
50 SUIBeat ZbergNLDRabobank04:11:35  +  00:09:08=33,866 
51 SUIThierry LoderFRAAg2r Prevoyance04:12:26  +  00:09:59=33,751 
52 RUSAlexandre BotcharovFRAAg2r Prevoyance04:12:26  +  00:09:59=33,751 
53 ESPIñigo ChaurreauFRAAg2r Prevoyance04:12:26  +  00:09:59=33,751 
54 USAGeorge HincapieUSAUS Postal Service04:12:26  +  00:09:59=33,751 
55 COLVictor Hugo PenaUSAUS Postal Service04:12:26  +  00:09:59=33,751 
56 BELAxel MerckxBELDomo-Farm Frites04:12:26  +  00:09:59=33,751 
57 GERUdo BöltsUSATeam Telekom04:12:26  +  00:09:59=33,751 
58 CZEPavel PadrnosUSAUS Postal Service04:12:26  +  00:09:59=33,751 
59 NEDAddy EngelsNLDRabobank04:12:26  +  00:09:59=33,751 
60 FRAPatrice HalgandFRAJean Delatour04:16:39  +  00:14:12=33,197 
61 GERJens VoigtFRACredit Agricole04:16:39  +  00:14:12=33,197 
62 ESPMikel PraderaESPO.N.C.E.-Eroski04:16:39  +  00:14:12=33,197 
63 ESPAbraham OlanoESPO.N.C.E.-Eroski04:16:39  +  00:14:12=33,197 
64 ESPConstantino ZaballaESPKelme-Costa Blanca04:16:39  +  00:14:12=33,197 
65 ITAMarco SerpelliniITALampre-Daikin04:16:39  +  00:14:12=33,197 
66 RSARobert HunterITAMapei-Quick Step04:16:39  +  00:14:12=33,197 
67 ITAMarco VeloITAFassa Bortolo04:16:39  +  00:14:12=33,197 
68 FRAChristophe MenginFRAfdjeux.com04:16:39  +  00:14:12=33,197 
69 ESPHaimar ZubeldiaESPEuskaltel - Euskadi04:16:39  +  00:14:12=33,197 
70 POLPiotr WadeckiBELDomo-Farm Frites04:16:39  +  00:14:12=33,197 
71 ITACristian MoreniITAAlessio04:16:39  +  00:14:12=33,197 
72 CZETomas KonecnyBELDomo-Farm Frites04:16:39  +  00:14:12=33,197 
73 FRALaurent JalabertDNKTeam CSC-Tiscali04:16:39  +  00:14:12=33,197 
74 BELSerge BaguetBELLotto-Adecco04:16:39  +  00:14:12=33,197 
75 ESPPedro HorrilloITAMapei-Quick Step04:16:39  +  00:14:12=33,197 
76 FRAFranck BouyerFRABonjour04:16:39  +  00:14:12=33,197 
77 FRAJérôme BernardFRAJean Delatour04:16:39  +  00:14:12=33,197 
78 USAFloyd LandisUSAUS Postal Service04:16:39  +  00:14:12=33,197 
79 URSViatcheslav EkimovUSAUS Postal Service04:16:39  +  00:14:12=33,197 
80 ESPFrancisco CabelloESPKelme-Costa Blanca04:16:39  +  00:14:12=33,197 
81 BELMarc WautersNLDRabobank04:16:39  +  00:14:12=33,197 
82 ESPBingen FernandezFRACofidis Credit Par Telephone04:16:39  +  00:14:12=33,197 
83 ESPRoberto LaisekaESPEuskaltel - Euskadi04:16:39  +  00:14:12=33,197 
84 ESPSantiago BlancoESPibanesto.com04:16:39  +  00:14:12=33,197 
85 ESPJavier PascualESPibanesto.com04:16:39  +  00:14:12=33,197 
86 LUXBenoit JoachimUSAUS Postal Service04:18:26  +  00:15:59=32,968 
87 NEDBram de GrootNLDRabobank04:19:22  +  00:16:55=32,849 
88 RUSSerguei IvanovITAFassa Bortolo04:19:22  +  00:16:55=32,849 
89 RUSDenis MenchovESPibanesto.com04:19:22  +  00:16:55=32,849 
90 ITAAndrea BrognaraITAAlessio04:19:22  +  00:16:55=32,849 
91 GERSteffen WesemannUSATeam Telekom04:22:21  +  00:19:54=32,476 
92 ITANicola LodaITAFassa Bortolo04:22:21  +  00:19:54=32,476 
93 ITAEnrico CassaniBELDomo-Farm Frites04:22:21  +  00:19:54=32,476 
94 USABobby JulichUSATeam Telekom04:22:21  +  00:19:54=32,476 
95 GERGrischa NiermannNLDRabobank04:22:21  +  00:19:54=32,476 
96 ITAAndrea TafiITAMapei-Quick Step04:22:21  +  00:19:54=32,476 
97 BELLudo DierckxsensITALampre-Daikin04:22:21  +  00:19:54=32,476 
98 BELPaul Van HyfteDNKTeam CSC-Tiscali04:22:21  +  00:19:54=32,476 
99 DDRErik ZabelUSATeam Telekom04:22:21  +  00:19:54=32,476 
100 FRAFrédéric BessyFRACredit Agricole04:22:21  +  00:19:54=32,476 
101 FRACyril DesselFRAJean Delatour04:22:21  +  00:19:54=32,476 
102 ITAGianluca BortolamiITATacconi Sport04:22:21  +  00:19:54=32,476 
103 FRAEddy SeigneurFRAJean Delatour04:22:21  +  00:19:54=32,476 
104 ITAEddy MazzoleniITATacconi Sport04:22:21  +  00:19:54=32,476 
105 GERRolf AldagUSATeam Telekom04:22:21  +  00:19:54=32,476 
106 NEDErik DekkerNLDRabobank04:22:21  +  00:19:54=32,476 
107 FRAAnthony MorinFRACredit Agricole04:22:21  +  00:19:54=32,476 
108 ITAWladimir BelliITAFassa Bortolo04:22:21  +  00:19:54=32,476 
109 ESPDavid LatasaESPibanesto.com04:22:21  +  00:19:54=32,476 
110 FRAStéphane BergesFRAAg2r Prevoyance04:22:21  +  00:19:54=32,476 
111 FRAJean-Cyril RobinFRAfdjeux.com04:22:21  +  00:19:54=32,476 
112 USAKevin LivingstonUSATeam Telekom04:22:21  +  00:19:54=32,476 
113 MLTDavid MillarFRACofidis Credit Par Telephone04:22:21  +  00:19:54=32,476 
114 ITAGian Matteo FagniniUSATeam Telekom04:22:21  +  00:19:54=32,476 
115 BELThierry MarichalBELLotto-Adecco04:25:39  +  00:23:12=32,072 
116 NEDLeon van BonBELDomo-Farm Frites04:25:39  +  00:23:12=32,072 
117 AUSRobbie McEwenBELLotto-Adecco04:25:39  +  00:23:12=32,072 
118 NEDServais KnavenBELDomo-Farm Frites04:25:39  +  00:23:12=32,072 
119 FRAStéphane AugeFRAJean Delatour04:25:39  +  00:23:12=32,072 
120 FRAFranck RenierFRABonjour04:25:39  +  00:23:12=32,072 
121 FRAWalter BénéteauFRABonjour04:25:39  +  00:23:12=32,072 
122 FRAJérôme PineauFRABonjour04:25:39  +  00:23:12=32,072 
123 FRAChristophe EdaleineFRAJean Delatour04:25:39  +  00:23:12=32,072 
124 DENJakob PiilDNKTeam CSC-Tiscali04:25:39  +  00:23:12=32,072 
125 FRADamien NazonFRABonjour04:25:39  +  00:23:12=32,072 
126 ESPJosé Angel VidalESPKelme-Costa Blanca04:25:39  +  00:23:12=32,072 
127 FRAEmmanuel MagnienFRABonjour04:25:39  +  00:23:12=32,072 
128 URSArvis PiziksDNKTeam CSC-Tiscali04:25:39  +  00:23:12=32,072 
129 BELNico MattanFRACofidis Credit Par Telephone04:26:39  +  00:24:12=31,952 
130 AUSStuart O'GradyFRACredit Agricole04:26:39  +  00:24:12=31,952 
131 GERDanilo HondoUSATeam Telekom04:26:39  +  00:24:12=31,952 
132 SVKJán SvoradaITALampre-Daikin04:26:39  +  00:24:12=31,952 
133 ESPJosé GarciaESPibanesto.com04:26:39  +  00:24:12=31,952 
134 AUSBaden CookeFRAfdjeux.com04:26:39  +  00:24:12=31,952 
135 SUIRubens BertogliatiITALampre-Daikin04:26:39  +  00:24:12=31,952 
136 ITAAlessandro CortinovisITALampre-Daikin04:26:39  +  00:24:12=31,952 
137 URSRaivis BelohvosciksITALampre-Daikin04:26:39  +  00:24:12=31,952 
138 AUSBradley McGeeFRAfdjeux.com04:26:39  +  00:24:12=31,952 
139 ESPGorka ArrizabalagaESPEuskaltel - Euskadi04:26:39  +  00:24:12=31,952 
140 FRAAndy FlickingerFRAAg2r Prevoyance04:26:39  +  00:24:12=31,952 
141 ITAMauro RadaelliITATacconi Sport04:26:39  +  00:24:12=31,952 
142 SLOMartin HvastijaITAAlessio04:26:39  +  00:24:12=31,952 
143 ITAFabio BaldatoITAFassa Bortolo04:26:39  +  00:24:12=31,952 
144 ITAMassimo ApollonioITATacconi Sport04:26:39  +  00:24:12=31,952 
145 ITADavide CasarottoITAAlessio04:26:39  +  00:24:12=31,952 
146 NEDKarsten KroonNLDRabobank04:26:39  +  00:24:12=31,952 
147 FRASébastien HinaultFRACredit Agricole04:26:39  +  00:24:12=31,952 
148 FRAChristophe AgnoluttoFRAAg2r Prevoyance04:26:39  +  00:24:12=31,952 
149 FRAAnthony LangellaFRACredit Agricole04:26:39  +  00:24:12=31,952 
150 VENUnai EtxebarriaESPEuskaltel - Euskadi04:26:39  +  00:24:12=31,952 
151 ESPIgor Flores GalarzaESPEuskaltel - Euskadi04:26:39  +  00:24:12=31,952 
152 RUSGuennadi MikhailovBELLotto-Adecco04:26:39  +  00:24:12=31,952 
153 BELHans De ClercqBELLotto-Adecco04:30:25  +  00:27:58=31,507 

Withdrawls: 3
 
Rider
Team
Reason
42  ESPDaniel AtienzaFRACofidis Credit Par TelephoneDid not finish
96  FRAFrédéric GuesdonFRAfdjeux.comDid not finish
175  ITAMassimo DonatiITATacconi SportDid not finish

Todays birthdays.

1887  Donald Kirkham
1889  Théodore Abada
1911  Guillaume Chavard
1912  Jean Fontenay
1913  Fabien Galateau
1930  Roger Hassenforder
1930  Richard Van Genechten
1936  Philippe Gaudrillet
1937  Joseph Novales
1954  Hans-Peter Jakst
1960  Manuel Ramos
1973  David Etxebarria
1974  Rik Verbrugghe
1976  Jörg Jaksche




Visits: